This demonstration page uses our WeatherBlox Daily Observations layout. Learn more.

Left ArrowRight Arrow

Hourly Observations for November 30, 2022

Temp ( °F °C ) Dew Point ( °F °C ) Humidity (%) Winds ( mph kmh ) Pressure ( in mb ) Visibility ( mi km ) Precip ( " mm )
12:53 am 00:53 Clear 39 3.9 28 -2.2 64 64 NE 20 31 30.10 1019 10 16 0.00 0.00
1:53 am 01:53 Clear 36 2.2 27 -2.8 69 69 NE 16 26 30.13 1020 10 16 0.00 0.00
2:53 am 02:53 Clear 35 1.7 26 -3.3 69 69 NE 12 19 30.17 1022 10 16 0.00 0.00
3:53 am 03:53 Clear 33 0.6 26 -3.3 75 75 NNE 9 15 30.21 1023 10 16 0.00 0.00
4:53 am 04:53 Clear 30 -1.1 25 -3.9 81 81 NNW 5 7 30.25 1025 10 16 0.00 0.00
5:53 am 05:53 Clear 29 -1.7 25 -3.9 85 85 N 6 9 30.28 1026 10 16 0.00 0.00
6:53 am 06:53 Clear 29 -1.7 25 -3.9 85 85 N 7 11 30.33 1027 10 16 0.00 0.00
7:53 am 07:53 Sunny 29 -1.7 25 -3.9 85 85 N 6 9 30.36 1028 10 16 0.00 0.00
8:53 am 08:53 Sunny 33 0.6 25 -3.9 72 72 NNE 10 17 30.38 1029 10 16 0.00 0.00
9:53 am 09:53 Sunny 36 2.2 24 -4.4 62 62 NE 8 13 30.39 1029 10 16 0.00 0.00
10:53 am 10:53 Sunny 39 3.9 23 -5 52 52 E 9 15 30.38 1029 10 16 0.00 0.00
11:53 am 11:53 Sunny 41 5 23 -5 48 48 E 8 13 30.37 1029 10 16 0.00 0.00
12:53 pm 12:53 Sunny 42 5.6 22 -5.6 44 44 VRB 5 7 30.34 1027 10 16 0.00 0.00
1:53 pm 13:53 Sunny 45 7.2 22 -5.6 40 40 ESE 9 15 30.29 1026 10 16 0.00 0.00
2:53 pm 14:53 Sunny 46 7.8 23 -5 40 40 ESE 7 11 30.27 1025 10 16 0.00 0.00
3:53 pm 15:53 Sunny 46 7.8 22 -5.6 38 38 ESE 8 13 30.25 1024 10 16 0.00 0.00
4:53 pm 16:53 Sunny 47 8.3 23 -5 38 38 ESE 10 17 30.26 1025 10 16 0.00 0.00
5:53 pm 17:53 Clear 44 6.7 24 -4.4 45 45 ESE 10 17 30.27 1025 10 16 0.00 0.00
6:53 pm 18:53 Clear 41 5 26 -3.3 55 55 E 6 9 30.29 1026 10 16 0.00 0.00
7:53 pm 19:53 Clear 39 3.9 26 -3.3 59 59 E 7 11 30.30 1026 10 16 0.00 0.00
8:53 pm 20:53 Clear 38 3.3 26 -3.3 62 62 E 8 13 30.30 1026 10 16 0.00 0.00
9:53 pm 21:53 Clear 38 3.3 26 -3.3 62 62 E 6 9 30.30 1026 10 16 0.00 0.00
10:53 pm 22:53 Clear 37 2.8 26 -3.3 64 64 ESE 7 11 30.28 1025 10 16 0.00 0.00
11:53 pm 23:53 Partly Cloudy 38 3.3 25 -3.9 59 59 ESE 9 15 30.27 1025 10 16 0.00 0.00

Powered by AerisWeather